Lancaster, OH

5:13 PM EDT on June 27, 2017 (GMT -0400)
Fairfield County

Weather History for KLHQ - November, 2014

Change the Weather History Date:

Sunday, November 2, 2014

  Actual Average Record
Temperature  
Mean Temperature 38 °F -  
Max Temperature 48 °F 63 °F 80 °F (1987)
Min Temperature 26 °F 41 °F 22 °F (1954)
Degree Days  
Heating Degree Days 28    
Moisture  
Dew Point 24 °F    
Average Humidity 66    
Maximum Humidity 85    
Minimum Humidity 39    
Precipitation  
Precipitation 0.00 in - - ()
Sea Level Pressure  
Sea Level Pressure 30.39 in    
Wind  
Wind Speed 8 mph (NW)    
Max Wind Speed 12 mph    
Max Gust Speed 17 mph    
Visibility 10 miles    
Events      
Averages and records for this station are not official NWS values.
T = Trace of Precipitation, MM = Missing Value Source: NWS Daily Summary

Daily Weather History Graph

Daily Weather History Graph

Search for Another Location

Airport or City:

Trip Planner

Search our weather history database for the weather conditions in past years. The results will help you decide how hot, cold, wet, or windy it might be!

Date:

Astronomy

Nov. 02, 2014 Rise Set
Actual Time 7:00 AM EST 5:27 PM EST
Civil Twilight 6:32 AM EST 5:55 PM EST
Nautical Twilight 6:00 AM EST 6:27 PM EST
Astronomical Twilight 5:28 AM EST 6:58 PM EST
Moon 2:58 PM EST (11/2) 2:02 AM EST (11/2)
Length of Visible Light 11h 23m
Length of Day
10h 27m
Waxing Gibbous, 78% of the Moon is Illuminated
Nov 2
Waxing Gibbous
Nov 6
Full
Nov 14
Last Quarter
Nov 22
New
Nov 29
First Quarter

Hourly Weather History & Observations

Time (EST) Temp. Windchill Dew Point Humidity Pressure Visibility Wind Dir Wind Speed Gust Speed Precip Events Conditions
12:53 AM 35.1 °F 27.4 °F 25.0 °F 67% 30.31 in 10.0 mi NW 10.4 mph - N/A   Mostly Cloudy
1:53 AM 35.1 °F 26.9 °F 25.0 °F 67% 30.31 in 10.0 mi NW 11.5 mph - N/A   Overcast
1:53 AM 34.0 °F 26.6 °F 24.1 °F 67% 30.32 in 10.0 mi NW 9.2 mph - N/A   Overcast
2:53 AM 32.0 °F 24.2 °F 24.1 °F 73% 30.33 in 10.0 mi NW 9.2 mph - N/A   Scattered Clouds
3:53 AM 30.9 °F 24.3 °F 24.1 °F 76% 30.35 in 10.0 mi NW 6.9 mph - N/A   Mostly Cloudy
4:53 AM 30.9 °F 23.5 °F 23.0 °F 72% 30.37 in 10.0 mi NW 8.1 mph - N/A   Clear
5:53 AM 30.0 °F 24.1 °F 23.0 °F 75% 30.40 in 10.0 mi NNW 5.8 mph - N/A   Clear
6:53 AM 28.9 °F 22.8 °F 23.0 °F 78% 30.42 in 10.0 mi NW 5.8 mph - N/A   Clear
7:53 AM 30.9 °F 24.3 °F 24.1 °F 76% 30.44 in 10.0 mi NW 6.9 mph - N/A   Clear
8:53 AM 34.0 °F 26.6 °F 26.1 °F 73% 30.46 in 10.0 mi NW 9.2 mph - N/A   Clear
9:53 AM 37.9 °F 31.5 °F 27.0 °F 65% 30.46 in 10.0 mi NW 9.2 mph - N/A   Clear
10:53 AM 42.1 °F 35.7 °F 27.0 °F 55% 30.45 in 10.0 mi North 11.5 mph - N/A   Partly Cloudy
11:53 AM 43.0 °F 38.2 °F 27.0 °F 53% 30.43 in 10.0 mi NW 8.1 mph 17.3 mph N/A   Clear
12:53 PM 45.0 °F 39.7 °F 26.1 °F 48% 30.40 in 10.0 mi WNW 10.4 mph - N/A   Clear
1:53 PM 46.9 °F - 26.1 °F 44% 30.38 in 10.0 mi North - - N/A   Clear
2:53 PM 48.0 °F - 26.1 °F 42% 30.37 in 10.0 mi NW 10.4 mph - N/A   Clear
3:53 PM 46.9 °F - 23.0 °F 39% 30.38 in 10.0 mi NW 8.1 mph - N/A   Clear
4:53 PM 45.0 °F 40.6 °F 21.9 °F 40% 30.39 in 10.0 mi WNW 8.1 mph - N/A   Clear
5:53 PM 37.9 °F - 24.1 °F 57% 30.39 in 10.0 mi Calm Calm - N/A   Clear
6:53 PM 30.9 °F - 24.1 °F 76% 30.40 in 10.0 mi Calm Calm - N/A   Clear
7:53 PM 28.9 °F - 24.1 °F 82% 30.40 in 10.0 mi Calm Calm - N/A   Clear
8:53 PM 27.0 °F - 23.0 °F 85% 30.40 in 10.0 mi Calm Calm - N/A   Clear
9:53 PM 27.0 °F - 21.9 °F 81% 30.40 in 10.0 mi Calm Calm - N/A   Clear
10:53 PM 26.1 °F - 21.9 °F 84% 30.40 in 10.0 mi Calm Calm - N/A   Clear